Location: Axtheid
(49.6213°N, 11.8205°E)
Time: 09:03:37
(UTC+00:00)

Cosmos 1763 Rocket - Pass Details

Date: 18 February 2020
Orbit: 732 x 780 km, 74.0° (Epoch: 03 April)

Event Time Altitude Azimuth Distance (km) Brightness Sun altitude
Rises 05:20:57 0° 338° (NNW) 3,273 6.5 -9.9°
Reaches altitude 10° 05:23:24 10° 342° (NNW) 2,344 5.8 -9.5°
Maximum altitude 05:28:39 58° 62° (ENE) 913 4.2 -8.7°
Drops below altitude 10° 05:33:53 10° 141° (SE) 2,329 6.8 -7.8°
Sets 05:36:18 0° 146° (SE) 3,249 7.5 -7.4°
